| time (UTC) | temp F | wind direction | speed MPH | gust MPH | rain 1hr in | rain 24hr in | rain mn in | humidity % | barometer mb |
| 20260504201435 | 81 | 247 | 1.0 | 2.0 | 0.00 | 0.00 | 0.00 | 50 | 1002.0 |
| 20260504200933 | 81 | 225 | 1.0 | 2.0 | 0.00 | 0.00 | 0.00 | 51 | 1001.9 |
| 20260504200429 | 81 | 155 | 3.0 | 3.0 | 0.00 | 0.00 | 0.00 | 48 | 1001.9 |
| 20260504195926 | 81 | 226 | 1.0 | 1.0 | 0.00 | 0.00 | 0.00 | 49 | 1001.9 |
| 20260504195422 | 80 | 223 | 3.0 | 5.0 | 0.00 | 0.00 | 0.00 | 48 | 1001.8 |
| 20260504194919 | 80 | 233 | 3.0 | 3.0 | 0.00 | 0.00 | 0.00 | 47 | 1001.8 |
| 20260504194414 | 80 | 227 | 2.0 | 2.0 | 0.00 | 0.00 | 0.00 | 50 | 1001.6 |
| 20260504193911 | 80 | 203 | 3.0 | 5.0 | 0.00 | 0.00 | 0.00 | 52 | 1001.9 |
| 20260504193408 | 81 | 253 | 3.0 | 3.0 | 0.00 | 0.00 | 0.00 | 47 | 1001.8 |
| 20260504192907 | 80 | 222 | 1.0 | 1.0 | 0.00 | 0.00 | 0.00 | 51 | 1001.8 |
| 20260504192404 | 79 | 226 | 2.0 | 2.0 | 0.00 | 0.00 | 0.00 | 47 | 1001.8 |
| 20260504191902 | 80 | 236 | 2.0 | 2.0 | 0.00 | 0.00 | 0.00 | 50 | 1001.9 |
| 20260504191400 | 80 | 236 | 2.0 | 3.0 | 0.00 | 0.00 | 0.00 | 47 | 1002.0 |
| 20260504190855 | 80 | 222 | 4.0 | 7.0 | 0.00 | 0.00 | 0.00 | 48 | 1001.7 |
| 20260504190351 | 80 | 226 | 1.0 | 2.0 | 0.00 | 0.00 | 0.00 | 48 | 1001.8 |
| 20260504185848 | 80 | 226 | 4.0 | 6.0 | 0.00 | 0.00 | 0.00 | 47 | 1001.9 |
| 20260504185345 | 80 | 206 | 2.0 | 2.0 | 0.00 | 0.00 | 0.00 | 49 | 1001.9 |
| 20260504184841 | 80 | 224 | 2.0 | 2.0 | 0.00 | 0.00 | 0.00 | 50 | 1002.0 |
| 20260504184337 | 79 | 233 | 3.0 | 5.0 | 0.00 | 0.00 | 0.00 | 49 | 1001.9 |
| 20260504183833 | 80 | 214 | 2.0 | 2.0 | 0.00 | 0.00 | 0.00 | 48 | 1001.9 |
| 20260504183331 | 80 | 222 | 2.0 | 2.0 | 0.00 | 0.00 | 0.00 | 50 | 1002.0 |
| 20260504182828 | 80 | 225 | 2.0 | 2.0 | 0.00 | 0.00 | 0.00 | 50 | 1001.9 |
| 20260504182325 | 79 | 241 | 2.0 | 3.0 | 0.00 | 0.00 | 0.00 | 52 | 1001.8 |
| 20260504181822 | 78 | 254 | 2.0 | 3.0 | 0.00 | 0.00 | 0.00 | 52 | 1002.1 |
| 20260504181320 | 79 | 179 | 1.0 | 1.0 | 0.00 | 0.00 | 0.00 | 52 | 1002.3 |
| 20260504180819 | 79 | 214 | 3.0 | 5.0 | 0.00 | 0.00 | 0.00 | 49 | 1002.5 |
| 20260504180316 | 79 | 225 | 2.0 | 2.0 | 0.00 | 0.00 | 0.00 | 53 | 1002.6 |
| 20260504175814 | 78 | 215 | 2.0 | 3.0 | 0.00 | 0.00 | 0.00 | 53 | 1002.4 |
| 20260504175311 | 78 | 224 | 1.0 | 1.0 | 0.00 | 0.00 | 0.00 | 55 | 1002.5 |
| 20260504174809 | 78 | 157 | 4.0 | 6.0 | 0.00 | 0.00 | 0.00 | 52 | 1002.9 |
| 20260504174306 | 78 | 218 | 2.0 | 3.0 | 0.00 | 0.00 | 0.00 | 57 | 1002.7 |
| 20260504173803 | 77 | 223 | 1.0 | 2.0 | 0.00 | 0.00 | 0.00 | 54 | 1003.0 |
| 20260504173300 | 77 | 256 | 3.0 | 6.0 | 0.00 | 0.00 | 0.00 | 56 | 1003.0 |
| 20260504172756 | 77 | 207 | 1.0 | 2.0 | 0.00 | 0.00 | 0.00 | 56 | 1002.7 |
| 20260504172253 | 76 | 215 | 3.0 | 3.0 | 0.00 | 0.00 | 0.00 | 55 | 1003.1 |
| 20260504171749 | 77 | 263 | 3.0 | 3.0 | 0.00 | 0.00 | 0.00 | 53 | 1003.2 |
| 20260504171246 | 76 | 251 | 4.0 | 5.0 | 0.00 | 0.00 | 0.00 | 55 | 1003.2 |
| 20260504170743 | 75 | 238 | 4.0 | 8.0 | 0.00 | 0.00 | 0.00 | 55 | 1003.2 |
| 20260504170241 | 75 | 222 | 3.0 | 5.0 | 0.00 | 0.00 | 0.00 | 53 | 1003.5 |
| 20260504160159 | 74 | 246 | 3.0 | 5.0 | 0.00 | 0.00 | 0.00 | 54 | 1003.9 |
| 20260504151127 | 73 | 259 | 3.0 | 5.0 | 0.00 | 0.00 | 0.00 | 54 | 1004.2 |
| 20260504150624 | 74 | 234 | 4.0 | 5.0 | 0.00 | 0.00 | 0.00 | 53 | 1004.1 |
| 20260504150121 | 74 | 216 | 3.0 | 5.0 | 0.00 | 0.00 | 0.00 | 54 | 1004.1 |
| 20260504141049 | 69 | 180 | 1.0 | 2.0 | 0.00 | 0.00 | 0.00 | 66 | 1004.5 |
| 20260504140546 | 69 | 215 | 1.0 | 1.0 | 0.00 | 0.00 | 0.00 | 69 | 1004.3 |
| 20260504130510 | 61 | 217 | 3.0 | 3.0 | 0.00 | 0.00 | 0.00 | 81 | 1005.0 |
| 20260504110358 | 50 | 220 | 0.0 | 0.0 | 0.00 | 0.00 | 0.00 | 95 | 1005.7 |
| 20260504100315 | 49 | 220 | 0.0 | 0.0 | 0.00 | 0.00 | 0.00 | 95 | 1006.0 |
| 20260504081708 | 50 | 220 | 0.0 | 0.0 | 0.00 | 0.00 | 0.00 | 92 | 1006.6 |
| 20260504081205 | 50 | 220 | 0.0 | 0.0 | 0.00 | 0.00 | 0.00 | 91 | 1006.1 |
| 20260504080701 | 50 | 220 | 0.0 | 0.0 | 0.00 | 0.00 | 0.00 | 91 | 1006.3 |
| 20260504080157 | 50 | 220 | 0.0 | 0.0 | 0.00 | 0.00 | 0.00 | 90 | 1006.4 |
| 20260504070125 | 50 | 214 | 0.0 | 0.0 | 0.00 | 0.00 | 0.00 | 90 | 1007.3 |
| 20260504050514 | 54 | 214 | 0.0 | 0.0 | 0.00 | 0.00 | 0.00 | 84 | 1007.8 |
| 20260504050011 | 54 | 214 | 0.0 | 0.0 | 0.00 | 0.00 | 0.00 | 83 | 1007.9 |
| 20260504045508 | 55 | 215 | 0.0 | 0.0 | 0.00 | 0.00 | 0.00 | 84 | 1007.8 |
| 20260504045003 | 55 | 215 | 0.0 | 0.0 | 0.00 | 0.00 | 0.00 | 82 | 1007.9 |
| 20260504044501 | 55 | 215 | 0.0 | 0.0 | 0.00 | 0.00 | 0.00 | 81 | 1007.9 |
| 20260504043958 | 56 | 215 | 0.0 | 0.0 | 0.00 | 0.00 | 0.00 | 80 | 1008.0 |
| 20260504043455 | 56 | 214 | 0.0 | 0.0 | 0.00 | 0.00 | 0.00 | 78 | 1008.1 |
| 20260504042952 | 54 | 215 | 0.0 | 0.0 | 0.00 | 0.00 | 0.00 | 81 | 1008.3 |
| 20260504042448 | 54 | 215 | 0.0 | 0.0 | 0.00 | 0.00 | 0.00 | 83 | 1008.3 |
| 20260504041945 | 55 | 215 | 0.0 | 0.0 | 0.00 | 0.00 | 0.00 | 82 | 1008.5 |
| 20260504041442 | 55 | 215 | 0.0 | 0.0 | 0.00 | 0.00 | 0.00 | 82 | 1008.4 |
| 20260504040937 | 55 | 215 | 0.0 | 0.0 | 0.00 | 0.00 | 0.00 | 79 | 1008.3 |
| 20260504040436 | 54 | 215 | 0.0 | 0.0 | 0.00 | 0.00 | 0.00 | 82 | 1008.3 |
| 20260504035931 | 54 | 215 | 0.0 | 0.0 | 0.00 | 0.00 | 0.00 | 80 | 1008.2 |
| 20260504035429 | 54 | 215 | 0.0 | 0.0 | 0.00 | 0.00 | 0.00 | 82 | 1008.5 |
| 20260504034925 | 54 | 215 | 0.0 | 0.0 | 0.00 | 0.00 | 0.00 | 81 | 1008.5 |
| 20260504034423 | 54 | 215 | 0.0 | 0.0 | 0.00 | 0.00 | 0.00 | 81 | 1008.5 |
| 20260504033920 | 54 | 215 | 0.0 | 0.0 | 0.00 | 0.00 | 0.00 | 81 | 1008.7 |
| 20260504033418 | 54 | 215 | 0.0 | 0.0 | 0.00 | 0.00 | 0.00 | 80 | 1009.0 |
| 20260504032914 | 55 | 215 | 0.0 | 0.0 | 0.00 | 0.00 | 0.00 | 80 | 1009.1 |
| 20260504032411 | 55 | 215 | 0.0 | 0.0 | 0.00 | 0.00 | 0.00 | 79 | 1009.0 |
| 20260504031908 | 56 | 215 | 0.0 | 0.0 | 0.00 | 0.00 | 0.00 | 78 | 1008.7 |
| 20260504031405 | 56 | 216 | 0.0 | 0.0 | 0.00 | 0.00 | 0.00 | 78 | 1008.8 |
| 20260504030902 | 56 | 216 | 0.0 | 0.0 | 0.00 | 0.00 | 0.00 | 77 | 1008.7 |
| 20260504030359 | 56 | 216 | 0.0 | 0.0 | 0.00 | 0.00 | 0.00 | 77 | 1008.5 |
| 20260504025854 | 57 | 216 | 0.0 | 0.0 | 0.00 | 0.00 | 0.00 | 77 | 1008.7 |
| 20260504025352 | 57 | 216 | 0.0 | 0.0 | 0.00 | 0.00 | 0.00 | 75 | 1008.7 |
| 20260504024848 | 58 | 216 | 0.0 | 0.0 | 0.00 | 0.00 | 0.00 | 75 | 1008.7 |
| 20260504024345 | 59 | 216 | 0.0 | 0.0 | 0.00 | 0.00 | 0.00 | 71 | 1008.8 |
| 20260504023842 | 58 | 216 | 0.0 | 0.0 | 0.00 | 0.00 | 0.00 | 71 | 1008.7 |
| 20260504023339 | 58 | 216 | 0.0 | 0.0 | 0.00 | 0.00 | 0.00 | 72 | 1008.7 |
| 20260504022834 | 59 | 216 | 0.0 | 0.0 | 0.00 | 0.00 | 0.00 | 70 | 1008.7 |
| 20260504022331 | 59 | 216 | 0.0 | 0.0 | 0.00 | 0.00 | 0.00 | 69 | 1009.1 |
| 20260504021828 | 59 | 216 | 0.0 | 0.0 | 0.00 | 0.00 | 0.00 | 69 | 1008.8 |
| 20260504021325 | 60 | 216 | 0.0 | 0.0 | 0.00 | 0.00 | 0.00 | 70 | 1008.8 |
| 20260504020822 | 60 | 217 | 0.0 | 0.0 | 0.00 | 0.00 | 0.00 | 69 | 1008.7 |
| 20260504020319 | 60 | 217 | 0.0 | 0.0 | 0.00 | 0.00 | 0.00 | 69 | 1008.5 |
| 20260504015815 | 60 | 218 | 0.0 | 0.0 | 0.00 | 0.00 | 0.00 | 68 | 1008.5 |
| 20260504015311 | 60 | 218 | 0.0 | 0.0 | 0.00 | 0.00 | 0.00 | 68 | 1008.5 |
| 20260504014808 | 61 | 218 | 0.0 | 0.0 | 0.00 | 0.00 | 0.00 | 67 | 1008.7 |
| 20260504014303 | 61 | 218 | 0.0 | 0.0 | 0.00 | 0.00 | 0.00 | 67 | 1008.8 |
| 20260504013801 | 61 | 218 | 0.0 | 0.0 | 0.00 | 0.00 | 0.00 | 66 | 1008.6 |
| 20260504013259 | 62 | 218 | 0.0 | 0.0 | 0.00 | 0.00 | 0.00 | 66 | 1008.6 |
| 20260504012755 | 62 | 218 | 0.0 | 0.0 | 0.00 | 0.00 | 0.00 | 66 | 1008.5 |
| 20260504012253 | 62 | 218 | 0.0 | 0.0 | 0.00 | 0.00 | 0.00 | 65 | 1008.6 |
| 20260504011750 | 62 | 218 | 0.0 | 0.0 | 0.00 | 0.00 | 0.00 | 65 | 1008.5 |
| 20260504011247 | 63 | 218 | 0.0 | 0.0 | 0.00 | 0.00 | 0.00 | 64 | 1008.4 |
| 20260504010743 | 63 | 218 | 0.0 | 0.0 | 0.00 | 0.00 | 0.00 | 63 | 1008.5 |
| 20260504010238 | 64 | 218 | 0.0 | 0.0 | 0.00 | 0.00 | 0.00 | 62 | 1008.4 |
| 20260504005736 | 64 | 218 | 0.0 | 0.0 | 0.00 | 0.00 | 0.00 | 62 | 1008.4 |
| 20260504005233 | 64 | 218 | 0.0 | 0.0 | 0.00 | 0.00 | 0.00 | 61 | 1008.2 |
| 20260504004730 | 65 | 218 | 0.0 | 0.0 | 0.00 | 0.00 | 0.00 | 60 | 1008.5 |
| 20260504004227 | 65 | 218 | 0.0 | 0.0 | 0.00 | 0.00 | 0.00 | 60 | 1008.3 |
| 20260504003723 | 66 | 218 | 0.0 | 0.0 | 0.00 | 0.00 | 0.00 | 60 | 1008.1 |
| 20260504003221 | 66 | 218 | 0.0 | 0.0 | 0.00 | 0.00 | 0.00 | 58 | 1008.3 |
| 20260504002717 | 67 | 218 | 0.0 | 0.0 | 0.00 | 0.00 | 0.00 | 59 | 1008.4 |
| 20260504002214 | 67 | 211 | 0.0 | 0.0 | 0.00 | 0.00 | 0.00 | 58 | 1008.5 |
| 20260504001712 | 68 | 211 | 0.0 | 0.0 | 0.00 | 0.00 | 0.00 | 56 | 1008.2 |
| 20260504001209 | 68 | 221 | 1.0 | 1.0 | 0.00 | 0.00 | 0.00 | 55 | 1008.6 |
| 20260504000705 | 68 | 232 | 2.0 | 2.0 | 0.00 | 0.00 | 0.00 | 55 | 1008.4 |
| 20260504000204 | 68 | 218 | 0.0 | 0.0 | 0.00 | 0.00 | 0.00 | 55 | 1008.4 |
| 20260503235701 | 68 | 222 | 2.0 | 2.0 | 0.00 | 0.00 | 0.00 | 54 | 1008.6 |
| 20260503235157 | 68 | 227 | 2.0 | 2.0 | 0.00 | 0.00 | 0.00 | 55 | 1008.3 |
| 20260503234655 | 69 | 214 | 0.0 | 1.0 | 0.00 | 0.00 | 0.00 | 54 | 1008.3 |
| 20260503234153 | 68 | 215 | 2.0 | 2.0 | 0.00 | 0.00 | 0.00 | 54 | 1008.4 |
| 20260503233649 | 68 | 224 | 0.0 | 1.0 | 0.00 | 0.00 | 0.00 | 54 | 1008.5 |
| 20260503233145 | 68 | 223 | 3.0 | 5.0 | 0.00 | 0.00 | 0.00 | 53 | 1008.5 |
| 20260503232642 | 69 | 232 | 2.0 | 2.0 | 0.00 | 0.00 | 0.00 | 53 | 1008.4 |
| 20260503232140 | 69 | 231 | 1.0 | 2.0 | 0.00 | 0.00 | 0.00 | 53 | 1008.6 |
| 20260503231638 | 69 | 240 | 3.0 | 3.0 | 0.00 | 0.00 | 0.00 | 52 | 1008.4 |
| 20260503231134 | 69 | 222 | 2.0 | 2.0 | 0.00 | 0.00 | 0.00 | 52 | 1008.6 |
| 20260503230631 | 69 | 215 | 1.0 | 1.0 | 0.00 | 0.00 | 0.00 | 52 | 1008.6 |
| 20260503230128 | 69 | 248 | 3.0 | 5.0 | 0.00 | 0.00 | 0.00 | 52 | 1008.6 |
| 20260503225626 | 69 | 206 | 2.0 | 2.0 | 0.00 | 0.00 | 0.00 | 51 | 1008.4 |
| 20260503225125 | 69 | 227 | 3.0 | 5.0 | 0.00 | 0.00 | 0.00 | 53 | 1008.7 |
| 20260503224623 | 69 | 243 | 3.0 | 3.0 | 0.00 | 0.00 | 0.00 | 52 | 1008.8 |
| 20260503224121 | 69 | 236 | 1.0 | 2.0 | 0.00 | 0.00 | 0.00 | 53 | 1009.0 |
| 20260503223618 | 69 | 251 | 3.0 | 5.0 | 0.00 | 0.00 | 0.00 | 52 | 1009.0 |
| 20260503223114 | 69 | 244 | 3.0 | 3.0 | 0.00 | 0.00 | 0.00 | 52 | 1008.7 |
| 20260503222612 | 70 | 247 | 3.0 | 3.0 | 0.00 | 0.00 | 0.00 | 51 | 1008.4 |
| 20260503222109 | 69 | 219 | 0.0 | 1.0 | 0.00 | 0.00 | 0.00 | 51 | 1008.4 |
| 20260503221608 | 69 | 224 | 1.0 | 1.0 | 0.00 | 0.00 | 0.00 | 53 | 1008.5 |
| 20260503221105 | 69 | 255 | 3.0 | 5.0 | 0.00 | 0.00 | 0.00 | 52 | 1008.5 |
| 20260503220601 | 69 | 256 | 3.0 | 6.0 | 0.00 | 0.00 | 0.00 | 53 | 1008.7 |
| 20260503220058 | 69 | 225 | 3.0 | 3.0 | 0.00 | 0.00 | 0.00 | 53 | 1008.8 |
| 20260503215555 | 69 | 244 | 3.0 | 3.0 | 0.00 | 0.00 | 0.00 | 53 | 1008.7 |
| 20260503215052 | 68 | 229 | 0.0 | 0.0 | 0.00 | 0.00 | 0.00 | 55 | 1008.6 |
| 20260503214550 | 68 | 232 | 0.0 | 0.0 | 0.00 | 0.00 | 0.00 | 54 | 1008.8 |
| 20260503214046 | 68 | 244 | 3.0 | 5.0 | 0.00 | 0.00 | 0.00 | 53 | 1009.1 |
| 20260503213545 | 67 | 220 | 1.0 | 3.0 | 0.00 | 0.00 | 0.00 | 55 | 1009.1 |
| 20260503213041 | 66 | 221 | 0.0 | 0.0 | 0.00 | 0.00 | 0.00 | 57 | 1009.1 |
| 20260503212538 | 67 | 222 | 0.0 | 0.0 | 0.00 | 0.00 | 0.00 | 56 | 1008.8 |
| 20260503212036 | 67 | 222 | 0.0 | 0.0 | 0.00 | 0.00 | 0.00 | 55 | 1008.7 |
| 20260503211533 | 67 | 224 | 1.0 | 1.0 | 0.00 | 0.00 | 0.00 | 54 | 1008.3 |
| 20260503211028 | 67 | 212 | 0.0 | 0.0 | 0.00 | 0.00 | 0.00 | 53 | 1009.0 |
| 20260503210525 | 67 | 221 | 1.0 | 2.0 | 0.00 | 0.00 | 0.00 | 53 | 1009.0 |
| 20260503210021 | 67 | 214 | 1.0 | 1.0 | 0.00 | 0.00 | 0.00 | 54 | 1008.7 |
| 20260503205518 | 67 | 218 | 1.0 | 1.0 | 0.00 | 0.00 | 0.00 | 52 | 1008.7 |
| 20260503205014 | 67 | 225 | 1.0 | 2.0 | 0.00 | 0.00 | 0.00 | 50 | 1009.4 |
| 20260503204512 | 67 | 228 | 0.0 | 1.0 | 0.00 | 0.00 | 0.00 | 51 | 1009.2 |
| 20260503204008 | 66 | 230 | 3.0 | 3.0 | 0.00 | 0.00 | 0.00 | 52 | 1009.8 |
| 20260503203506 | 66 | 210 | 0.0 | 1.0 | 0.00 | 0.00 | 0.00 | 51 | 1009.8 |
| 20260503203002 | 66 | 219 | 0.0 | 0.0 | 0.00 | 0.00 | 0.00 | 50 | 1009.5 |
| 20260503202500 | 66 | 228 | 0.0 | 0.0 | 0.00 | 0.00 | 0.00 | 51 | 1009.2 |
| 20260503201958 | 66 | 248 | 5.0 | 7.0 | 0.00 | 0.00 | 0.00 | 50 | 1009.3 |